Location: Newark
(43.6583°N, 1.6617°E)
Time: 20:51:54
(UTC+00:00)

deb Explorer IX - Pass Details

Date: 19 August 2019
Orbit: 544 x 1107 km, 38.8° (Epoch: 14 October)

Event Time Altitude Azimuth Distance (km) Brightness Sun altitude
Rises 19:13:52 0° 276° (W) 3,913 ? -4.6°
Reaches altitude 10° 19:17:02 10° 266° (W) 2,964 ? -5.2°
Maximum altitude 19:23:03 28° 210° (SSW) 1,904 ? -6.2°
Drops below altitude 10° 19:28:51 10° 155° (SSE) 2,838 ? -7.1°
Enters shadow 19:30:49 - 147° (SSE) 3,409 ? -7.4°
